VK3BYD-3 Weather Reports


time (UTC)temp
C
wind
direction
speed
KPH
gust
KPH
rain 1hr
cm
rain 24hr
cm
rain mn
cm
humidity
%
barometer
mb
20260504060138 17 31 3.2 11.3 0.00 2.97 0.08 70 1013.3
20260504050138 17 18 3.2 12.9 0.00 3.33 0.08 70 1013.1
20260504044637 18 63 3.2 11.3 0.00 3.33 0.08 67 1013.1
20260504043138 19 22 3.2 12.9 0.00 3.33 0.08 63 1013.0
20260504041638 19 22 4.8 12.9 0.00 3.33 0.08 66 1013.0
20260504040138 17 318 4.8 14.5 0.00 3.33 0.08 72 1013.2
20260504034637 18 52 3.2 14.5 0.00 3.35 0.08 67 1013.3
20260504033138 17 59 3.2 12.9 0.00 3.35 0.08 71 1013.4
20260504031637 17 311 4.8 14.5 0.00 3.35 0.08 70 1013.6
20260504030138 18 274 4.8 17.7 0.00 3.38 0.08 70 1013.8
20260504024637 18 319 4.8 12.9 0.00 3.38 0.08 68 1013.9
20260504023138 18 65 3.2 12.9 0.00 3.43 0.08 70 1014.1
20260504021637 18 29 4.8 14.5 0.00 3.43 0.08 71 1014.3
20260504020137 18 249 3.2 14.5 0.00 3.43 0.08 70 1014.5
20260504014634 17 20 4.8 12.9 0.00 3.43 0.08 74 1014.6
20260504013134 17 339 3.2 12.9 0.00 3.43 0.08 77 1014.9
20260504011634 17 308 3.2 12.9 0.00 3.45 0.08 78 1015.0
20260504010134 16 46 3.2 14.5 0.00 3.45 0.08 78 1015.1
20260504004631 16 24 4.8 14.5 0.00 3.45 0.08 82 1015.2
20260504003125 16 276 3.2 9.7 0.00 3.45 0.08 83 1015.2
20260504001626 14 27 1.6 11.3 0.00 3.48 0.08 87 1015.3
20260504000126 15 259 3.2 11.3 0.00 3.48 0.08 87 1015.4
20260503234625 14 302 3.2 9.7 0.00 3.48 0.08 90 1015.4
20260503233126 13 27 3.2 11.3 0.00 3.48 0.08 92 1015.4
20260503231621 13 308 3.2 11.3 0.00 3.48 0.08 96 1015.4
20260503230119 13 345 1.6 8.0 0.00 3.48 0.08 98 1015.4
20260503224617 12 5 1.6 8.0 0.00 3.48 0.08 98 1015.3
20260503223117 12 311 1.6 6.4 0.00 3.51 0.08 98 1015.3
20260503221617 12 44 1.6 4.8 0.00 3.51 0.08 99 1015.1
20260503220113 12 23 0.0 4.8 0.00 3.51 0.08 99 1015.1
20260503214614 11 25 0.0 3.2 0.00 3.51 0.08 99 1015.0
20260503213113 10 342 0.0 0.0 0.03 3.51 0.08 99 1014.8
20260503211611 10 331 0.0 0.0 0.03 3.51 0.08 98 1014.9
20260503210109 10 331 0.0 0.0 0.03 3.51 0.08 98 1015.0
20260503204603 10 331 0.0 0.0 0.03 3.58 0.08 98 1014.8
20260503203103 10 331 0.0 0.0 0.00 3.58 0.05 98 1014.5
20260503201603 10 332 0.0 1.6 0.00 3.58 0.05 98 1014.4
20260503194608 10 289 0.0 0.0 0.00 3.58 0.05 98 1013.9
20260503193103 10 289 0.0 1.6 0.00 3.58 0.05 98 1013.9
20260503191604 10 289 0.0 0.0 0.00 3.58 0.05 98 1013.8
20260503190109 10 289 0.0 0.0 0.00 3.58 0.05 98 1014.1
20260503184603 10 289 0.0 0.0 0.00 3.58 0.05 98 1014.2
20260503183100 10 289 0.0 0.0 0.00 3.58 0.05 98 1014.3
20260503181600 10 289 0.0 1.6 0.00 3.58 0.05 99 1014.4
20260503180056 9 79 0.0 1.6 0.00 3.58 0.05 99 1014.3
20260503174557 8 79 0.0 0.0 0.00 3.58 0.05 98 1014.3
20260503173058 8 79 0.0 0.0 0.00 3.58 0.05 97 1014.3
20260503171555 8 79 0.0 0.0 0.00 3.58 0.05 98 1014.0
20260503081522 16 34 4.8 17.7 1.27 2.06 2.06 95 1014.3
20260503071520 18 357 4.8 17.7 0.05 0.79 0.79 92 1011.9